This is the latest recevied weather packets stored in our database for station/object KK6LVQ-13. If no packets are shown the sender has not sent any weather packets the latest 10 day(s).
| Time | Temp. | Humidity | Pressure | Rain* | Wind** | Luminosity | Snow |
|---|---|---|---|---|---|---|---|
| 1777739823 | 11.67° C | 91% | 1019.5 hPa | 0 mm | - | 145 W/m² | - |
| 1777739520 | 11.67° C | 91% | 1019.6 hPa | 0 mm | - | 131 W/m² | - |
| 1777739216 | 11.67° C | 91% | 1019.5 hPa | 0 mm | - | 110 W/m² | - |
| 1777738913 | 11.67° C | 91% | 1019.4 hPa | 0 mm | - | 122 W/m² | - |
| 1777738610 | 11.67° C | 91% | 1019.5 hPa | 0 mm | - | 113 W/m² | - |
| 1777738307 | 11.67° C | 92% | 1019.5 hPa | 0 mm | - | 94 W/m² | - |
| 1777738005 | 11.67° C | 92% | 1019.6 hPa | 0 mm | - | 86 W/m² | - |
| 1777737704 | 11.11° C | 93% | 1019.5 hPa | 0 mm | - | 124 W/m² | - |
| 1777737402 | 11.11° C | 93% | 1019.5 hPa | 0 mm | - | 124 W/m² | - |
| 1777737098 | 11.11° C | 93% | 1019.7 hPa | 0 mm | - | 102 W/m² | - |
| 1777736794 | 11.11° C | 94% | 1019.5 hPa | 0 mm | - | 86 W/m² | - |
| 1777736166 | 10.56° C | 96% | 1019.5 hPa | 0 mm | - | 102 W/m² | - |
| 1777735863 | 10.56° C | 97% | 1019.3 hPa | 0 mm | - | 91 W/m² | - |
| 1777735561 | 10.56° C | 97% | 1019.2 hPa | 0 mm | - | 72 W/m² | - |
| 1777735258 | 10.56° C | 98% | 1019.3 hPa | 0 mm | - | 57 W/m² | - |
| 1777734955 | 10° C | 98% | 1019.2 hPa | 0 mm | - | 44 W/m² | - |
| 1777734652 | 10° C | 98% | 1019.3 hPa | 0 mm | - | 43 W/m² | - |
| 1777734350 | 10° C | 98% | 1019.2 hPa | 0 mm | - | 44 W/m² | - |
| 1777734045 | 10° C | 98% | 1019.1 hPa | 0 mm | - | 42 W/m² | - |
| 1777733742 | 10° C | 99% | 1019 hPa | 0 mm | - | 38 W/m² | - |
| 1777733439 | 10° C | 99% | 1018.9 hPa | 0 mm | - | 35 W/m² | - |
| 1777733135 | 10° C | 99% | 1018.9 hPa | 0 mm | - | 32 W/m² | - |
| 1777732832 | 10° C | 99% | 1018.9 hPa | 0 mm | - | 29 W/m² | - |
| 1777732528 | 10° C | 99% | 1018.9 hPa | 0 mm | - | 25 W/m² | - |
| 1777732227 | 10° C | 99% | 1018.8 hPa | 0 mm | - | 23 W/m² | - |
* Rain latest hour (hover to see other rain measurements)
** Current wind speed in m/s (hover to see current wind gust speed)